Showing default

GOES 14, 35491

Orbit data source: Space-Track

GOES 14, 35491 is a payload satellite owned by NOAA (US) in GEO that was launched on Sat, 27 Jun 2009 UTC via a DELTA 4M+(4,2) launch vehicle from the Air Force Eastern Test Range (AFETR). Payloads include a variety of satellites, spacecraft, and rockets equipped with specific instruments for various scientific and technological missions. These include communications satellites like Starlink; space stations such as the ISS; scientific satellites like the Hubble; Earth observation satellites from companies like Planet Labs, Umbra, and HawkEye 360; GPS; miniature CubeSats for education and research; and military/defense satellites.

Loading next visibility...
GOES 14 details
Identifier
35491, 2009-033A
Orbit
GEO
Last TLE update18 hours ago
Origin
Flag of USNOAA (US)
ManufacturerBoeing/ES
MissionOn reserve Civil Weather
Bus & MotorHS-601, R-4D?
Mass3,209 kg wet, 1,543 kg dry
Launch date (UTC)
2009-06-27 (15 years ago)
Launch vehicle
DELTA 4M+(4,2)
Launch site
Air Force Eastern Test Range (AFETR)
Object type
Payload
Rocket body
Debris
Shape & HBRBox + 1 Pan + 1 Ant, 8.2 m
Radar Cross Section14.281 m², Large (>1 m²)

Expand to show TLE details & history

TLE from 18 hours ago
0 GOES 14
1 35491U 09033A   24348.13588244 -.00000053  00000-0  00000+0 0  9991
2 35491   0.2518  91.4053 0003044 131.5240 159.8474  1.00272799 56634
Epoch: 2024-12-13T03:15Z
Definitive object data (Epoch: 2024-12-13T03:15:40.242Z)
Latitude-0.21383°
Longitude-108.44629°
Altitude35,797.881 km
Speed3.074 km/s
True Right ascension01h 31m 06s
True Declination0° 12' 49"
Sunlit
Object was in daylight at TLE epoch
Visualization TLE readout
Latitude-0.13371°
Longitude167.44124°
Altitude35,782.57 km
Speed3.075 km/s
Apparent Right ascension19h 52m 55s
Apparent Declination-6° 22' 57"
Sunlit
Object is in daylight
Visualization observer readout
Local Sidereal Time20:07:51
Azimuth185.126° SSW
Elevation43.573°
Doppler factor1
Orbital elements
Apogee altitude35,800.216 km
Perigee altitude35,774.546 km
Semi-major axis42,165.518 km
Eccentricity0.0003044
Inclination0.2518°
RAAN91.4053°
Arg. of periapsis131.524°
True anomaly159.85941°
Mean anomaly159.8474°
Eccentric anomaly159.85341°
Mean motion0.25067 °/min
BSTARUnknown
Orbital period1436.14 mins
Loading historical data...
35491 neighbors
Authenticating...
Loading maneuver chart data...
Loading historical data...
Loading historical data...
Loading historical data...
Loading historical data...
Loading historical data...
Loading historical data...
Loading historical data...
Other satellites on launch #33 in the year 2009 (2009-06-27 UTC)

GOES 14 Visibility forecast

Observer location: undefined°, undefined

Span
Click to sort rows by Start time (UTC) header in descending order
Start Az.
Max El. time (UTC)
Max El. Az.
Max El.
End time (UTC)
End Az.
1440 mins2024-12-13 21:36:05.990Z185.124° SSW2024-12-14 13:45:05.990Z185.245° SSW34.774°2024-12-14 21:36:05.990Z185.111° SSW
|